Location: Janeiro
(34.9957°N, 76.7652°W)
Time: 10:35:04
(UTC+00:00)

Cosmos 2369 Rocket - Pass Details

Date: 14 December 2019
Orbit: 828 x 853 km, 71.0° (Epoch: 21 January)

Event Time Altitude Azimuth Distance (km) Brightness Sun altitude
Rises 23:08:04 0° 349° (N) 3,392 5.3 -14.3°
Reaches altitude 10° 23:10:48 10° 360° (N) 2,458 4.4 -14.8°
Maximum altitude 23:15:45 31° 61° (ENE) 1,447 2.9 -15.8°
Enters shadow 23:19:16 17° 113° (ESE) 2,026 3.7 -16.5°
